This demonstration page uses our WeatherBlox Daily Observations layout. Learn more.

Left ArrowRight Arrow

39.51506, -84.39828

Hourly Observations for June 30, 2017

Temp ( °F °C ) Dew Point ( °F °C ) Humidity (%) Winds ( mph kmh ) Pressure ( in mb ) Visibility ( mi km ) Precip ( " mm )
12:15 am 00:15 Clear 80 26.5 65 18.5 62 62 SSW 8 13 29.94 1014 10 16 N/A
12:35 am 00:35 Clear 80 26.5 65 18.6 62 62 SSW 10 17 29.91 1013 10 16 N/A
12:55 am 00:55 Clear 80 26.5 66 18.9 63 63 SSW 8 13 29.91 1013 10 16 N/A
1:15 am 01:15 Partly Cloudy 80 26.5 66 19.1 64 64 SSW 13 20 29.94 1014 10 16 N/A
1:35 am 01:35 Mostly Cloudy 80 26.5 66 19.1 64 64 SSW 13 20 29.94 1014 10 16 N/A
1:55 am 01:55 Mostly Cloudy 80 26.5 66 19 63 63 SW 14 22 29.94 1014 10 16 N/A
2:15 am 02:15 Mostly Cloudy 80 26.5 67 19.2 64 64 SW 15 24 29.94 1014 10 16 N/A
2:35 am 02:35 Partly Cloudy 77 25.1 65 18.5 67 67 SW 16 26 29.94 1014 10 16 N/A
2:55 am 02:55 Clear 77 25.1 66 19 69 69 SW 12 19 29.94 1014 10 16 N/A
3:15 am 03:15 Clear N/A N/A N/A SSW 13 20 N/A 10 16 N/A
3:35 am 03:35 Clear 77 25.1 67 19.7 72 72 SSW 13 20 29.91 1013 10 16 N/A
3:55 am 03:55 Clear 77 25.1 67 19.6 72 72 SW 10 17 29.91 1013 10 16 N/A
4:15 am 04:15 Clear 77 25.1 67 19.7 72 72 SSW 10 17 29.91 1013 10 16 N/A
4:35 am 04:35 Clear 76 24.6 67 19.2 72 72 SW 13 20 29.91 1013 10 16 N/A
4:55 am 04:55 Partly Cloudy 76 24.4 66 19 72 72 SW 10 17 29.91 1013 10 16 N/A
5:15 am 05:15 Partly Cloudy 74 23.6 66 18.7 74 74 SSW 12 19 29.94 1014 10 16 N/A
5:35 am 05:35 Partly Cloudy 74 23.6 66 18.9 75 75 SSW 8 13 29.94 1014 10 16 N/A
5:55 am 05:55 Mostly Cloudy 74 23.6 66 18.9 75 75 SSW 9 15 29.94 1014 10 16 N/A
6:15 am 06:15 Mostly Cloudy 74 23.6 67 19.3 77 77 SW 10 17 29.94 1014 10 16 N/A
6:35 am 06:35 Mostly Cloudy 74 23.6 67 19.3 77 77 SW 8 13 29.94 1014 10 16 N/A
6:55 am 06:55 Cloudy with Light Rain 74 23.6 67 19.5 78 78 SSW 8 13 29.94 1014 10 16 N/A
7:15 am 07:15 Cloudy 74 23.6 67 19.5 78 78 SW 13 20 29.97 1015 10 16 N/A
7:35 am 07:35 Cloudy 74 23.6 67 19.4 77 77 SSW 9 15 29.97 1015 10 16 N/A
7:55 am 07:55 Cloudy 74 23.6 67 19.3 77 77 SSW 13 20 29.97 1015 10 16 N/A
8:15 am 08:15 Cloudy 74 23.6 67 19.4 77 77 SSW 13 20 29.97 1015 10 16 N/A
8:35 am 08:35 Cloudy 74 23.6 67 19.4 77 77 SSW 8 13 29.97 1015 10 16 N/A
8:55 am 08:55 Cloudy 75 23.8 67 19.4 76 76 SSW 12 19 29.97 1015 10 16 N/A
9:15 am 09:15 Cloudy 75 23.9 67 19.5 76 76 SSW 8 13 29.97 1015 10 16 N/A
9:35 am 09:35 Cloudy 77 24.9 69 20.5 77 77 SW 13 20 29.97 1015 10 16 N/A
9:55 am 09:55 Cloudy 77 25.1 70 20.9 78 78 SSW 12 19 29.97 1015 10 16 N/A
10:15 am 10:15 Cloudy 77 25.1 70 20.9 78 78 SSW 13 20 29.94 1014 10 16 N/A
10:35 am 10:35 Cloudy 77 25.1 69 20.7 77 77 SW 10 17 29.94 1014 10 16 N/A
10:55 am 10:55 Cloudy 77 25.1 69 20.8 77 77 SW 12 19 29.94 1014 10 16 N/A
11:15 am 11:15 Cloudy 77 25.1 69 20.5 76 76 SW 13 20 29.94 1014 10 16 N/A
11:35 am 11:35 Cloudy 77 25.1 69 20.6 76 76 SW 12 19 29.94 1014 10 16 N/A
11:55 am 11:55 Cloudy 77 25.1 69 20.4 75 75 SSW 10 17 29.94 1014 10 16 N/A
12:15 pm 12:15 Cloudy 77 25.1 68 20 73 73 SW 10 17 29.94 1014 10 16 N/A
12:35 pm 12:35 Cloudy 79 26.1 70 20.9 73 73 SW 7 11 29.94 1014 10 16 N/A
12:55 pm 12:55 Cloudy 80 26.5 70 21 72 72 W 6 9 29.94 1014 10 16 N/A
1:15 pm 13:15 Cloudy 80 26.5 70 20.9 71 71 WNW 5 7 29.94 1014 10 16 N/A
1:35 pm 13:35 Cloudy 80 26.5 70 21 72 72 W 5 7 29.94 1014 10 16 N/A
1:55 pm 13:55 Cloudy 80 26.5 69 20.5 70 70 SW 7 11 29.94 1014 10 16 N/A
2:15 pm 14:15 Cloudy 80 26.5 69 20.3 69 69 SSW 6 9 29.94 1014 10 16 N/A
2:35 pm 14:35 Cloudy 81 27.2 69 20.3 66 66 WSW 9 15 29.91 1013 10 16 N/A
2:55 pm 14:55 Mostly Cloudy 82 28 68 20.2 63 63 W 7 11 29.88 1012 10 16 N/A
3:15 pm 15:15 Mostly Cloudy 82 27.9 69 20.3 63 63 SW 9 15 29.88 1012 10 16 N/A
3:35 pm 15:35 Cloudy 81 27.2 68 20.2 66 66 S 8 13 29.91 1013 10 16 N/A
3:55 pm 15:55 Cloudy with Drizzle 80 26.5 69 20.7 71 71 SSW 10 17 29.88 1012 10 16 N/A
4:15 pm 16:15 Mostly Cloudy 82 28 69 20.8 65 65 SW 6 9 29.85 1011 10 16 N/A
4:35 pm 16:35 Mostly Cloudy 83 28.5 69 20.8 63 63 SW 9 15 29.85 1011 10 16 N/A
4:55 pm 16:55 Partly Cloudy 84 28.8 68 20.2 60 60 SW 12 19 29.85 1011 10 16 N/A
5:15 pm 17:15 Mostly Cloudy 84 28.9 67 19.7 58 58 SSW 16 26 29.85 1011 10 16 N/A
5:35 pm 17:35 Cloudy 84 29 67 19.2 55 55 S 12 19 29.83 1010 10 16 N/A
5:55 pm 17:55 Cloudy 84 29.1 66 18.7 53 53 WSW 10 17 29.83 1010 10 16 N/A
6:15 pm 18:15 Partly Cloudy 85 29.3 66 18.8 53 53 SW 7 11 29.83 1010 10 16 N/A
6:35 pm 18:35 Partly Cloudy 84 28.9 65 18.5 53 53 SSW 12 19 29.83 1010 10 16 N/A
6:55 pm 18:55 Sunny 83 28.6 64 17.5 51 51 SSW 9 15 29.83 1010 10 16 N/A
7:15 pm 19:15 Sunny 83 28.2 65 18.3 55 55 SW 7 11 29.83 1010 10 16 N/A
7:35 pm 19:35 Sunny 83 28.6 65 18.6 55 55 SW 5 7 29.83 1010 10 16 N/A
8:15 pm 20:15 Sunny 81 27.2 67 19.3 62 62 SW 5 7 29.83 1010 10 16 N/A
8:35 pm 20:35 Sunny 81 27.2 65 18.4 59 59 SW 5 7 29.83 1010 10 16 N/A
8:55 pm 20:55 Sunny N/A N/A N/A undefined N/A N/A 10 16 N/A
9:15 pm 21:15 Partly Cloudy N/A N/A N/A WSW 3 6 N/A 10 16 N/A
9:35 pm 21:35 Partly Cloudy 77 25.1 69 20.6 76 76 N N/A 29.85 1011 10 16 N/A
9:55 pm 21:55 Mostly Cloudy 77 25.1 69 20.7 77 77 N N/A 29.85 1011 10 16 N/A
10:15 pm 22:15 Mostly Cloudy 76 24.2 67 19.5 75 75 WNW 14 22 29.88 1012 10 16 N/A
10:35 pm 22:35 Cloudy with Heavy Rain 74 23.2 67 19.2 78 78 WSW 20 31 29.91 1013 3 5 N/A
10:55 pm 22:55 Cloudy with Heavy Rain 69 20.8 64 17.7 83 83 SW 6 9 29.88 1012 4 6 N/A
11:15 pm 23:15 Cloudy with Rain N/A N/A N/A S 3 6 N/A 5 8 N/A
11:35 pm 23:35 Cloudy with Rain 69 20.8 64 17.8 83 83 S 5 7 29.88 1012 7 11 N/A
11:55 pm 23:55 Cloudy with Rain N/A N/A N/A N N/A N/A 4 6 N/A

Powered by AerisWeather